CW5053 Weather Reports


time (UTC)temp
C
wind
direction
speed
KPH
gust
KPH
rain 1hr
cm
rain 24hr
cm
rain mn
cm
humidity
%
barometer
mb
20260503223722 30 291 0.0 9.7 0.00 0.00 0.00 33 1010.2
20260503223547 30 309 0.0 9.7 0.00 0.00 0.00 35 1009.4
20260503223224 30 238 3.2 12.9 0.00 0.00 0.00 36 1010.3
20260503223028 30 224 0.0 12.9 0.00 0.00 0.00 38 1009.6
20260503222732 30 251 3.2 12.9 0.00 0.00 0.00 38 1010.4
20260503222508 30 220 3.2 19.3 0.00 0.00 0.00 37 1009.7
20260503222214 30 280 0.0 19.3 0.00 0.00 0.00 39 1010.5
20260503222052 30 298 1.6 19.3 0.00 0.00 0.00 36 1009.8
20260503221736 30 13 8.0 19.3 0.00 0.00 0.00 37 1010.6
20260503221513 30 13 6.4 16.1 0.00 0.00 0.00 33 1009.9
20260503221224 30 14 8.0 16.1 0.00 0.00 0.00 33 1010.6
20260503221057 30 13 1.6 16.1 0.00 0.00 0.00 43 1009.9
20260503220726 30 13 1.6 12.9 0.00 0.00 0.00 39 1010.8
20260503220538 30 347 3.2 14.5 0.00 0.00 0.00 38 1010.0
20260503220234 30 309 1.6 14.5 0.00 0.00 0.00 36 1010.7
20260503220020 30 329 0.0 14.5 0.00 0.00 0.00 38 1010.1
20260503215715 30 271 4.8 14.5 0.00 0.00 0.00 38 1010.8
20260503215501 30 267 4.8 12.9 0.00 0.00 0.00 36 1010.0
20260503215216 30 271 4.8 17.7 0.00 0.00 0.00 36 1010.7
20260503215044 30 256 1.6 17.7 0.00 0.00 0.00 37 1010.0
20260503214717 30 252 4.8 17.7 0.00 0.00 0.00 38 1010.8
20260503214526 30 14 8.0 17.7 0.00 0.00 0.00 36 1010.1
20260503214226 30 288 0.0 14.5 0.00 0.00 0.00 38 1010.8
20260503214007 30 271 0.0 14.5 0.00 0.00 0.00 36 1010.1
20260503213727 30 13 6.4 17.7 0.00 0.00 0.00 36 1010.9
20260503213551 30 226 1.6 17.7 0.00 0.00 0.00 38 1010.3
20260503213229 30 277 3.2 17.7 0.00 0.00 0.00 38 1011.0
20260503213033 29 248 6.4 17.7 0.00 0.00 0.00 39 1010.3
20260503212738 30 15 3.2 17.7 0.00 0.00 0.00 38 1011.0
20260503212556 29 15 3.2 17.7 0.00 0.00 0.00 41 1010.3
20260503212219 30 13 4.8 17.7 0.00 0.00 0.00 37 1011.0
20260503212038 29 15 3.2 20.9 0.00 0.00 0.00 40 1010.3
20260503211720 29 14 4.8 20.9 0.00 0.00 0.00 41 1011.1
20260503211518 29 13 6.4 20.9 0.00 0.00 0.00 43 1010.3
20260503211229 29 13 9.7 20.9 0.00 0.00 0.00 42 1011.1
20260503211102 29 13 6.4 16.1 0.00 0.00 0.00 44 1010.5
20260503210757 29 14 3.2 16.1 0.00 0.00 0.00 42 1011.2
20260503210524 28 13 3.2 16.1 0.00 0.00 0.00 43 1010.4
20260503210218 29 13 9.7 17.7 0.00 0.00 0.00 45 1011.2
20260503210003 28 13 6.4 17.7 0.00 0.00 0.00 46 1010.5
20260503205718 28 13 8.0 17.7 0.00 0.00 0.00 45 1011.3
20260503205546 28 14 9.7 17.7 0.00 0.00 0.00 43 1010.5
20260503205247 28 13 8.0 16.1 0.00 0.00 0.00 43 1011.3
20260503205007 28 13 9.7 16.1 0.00 0.00 0.00 46 1010.6
20260503204727 28 13 6.4 16.1 0.00 0.00 0.00 44 1011.2
20260503204551 28 13 9.7 16.1 0.00 0.00 0.00 43 1010.6
20260503204228 28 14 6.4 14.5 0.00 0.00 0.00 46 1011.3
20260503204034 28 13 4.8 14.5 0.00 0.00 0.00 47 1010.7
20260503203710 28 13 8.0 14.5 0.00 0.00 0.00 51 1011.4
20260503203516 28 13 4.8 14.5 0.00 0.00 0.00 48 1010.8
20260503203239 28 14 6.4 12.9 0.00 0.00 0.00 48 1011.6
20260503203037 28 310 1.6 12.9 0.00 0.00 0.00 49 1010.9
20260503202747 28 15 3.2 8.0 0.00 0.00 0.00 47 1011.7
20260503202600 28 15 3.2 8.0 0.00 0.00 0.00 52 1011.0
20260503202228 28 14 3.2 9.7 0.00 0.00 0.00 50 1011.7
20260503202041 28 15 3.2 16.1 0.00 0.00 0.00 48 1011.0
20260503201736 28 14 4.8 16.1 0.00 0.00 0.00 51 1011.7
20260503201522 27 15 6.4 16.1 0.00 0.00 0.00 53 1011.0
20260503201217 28 14 6.4 16.1 0.00 0.00 0.00 51 1011.7
20260503201004 27 13 6.4 12.9 0.00 0.00 0.00 53 1011.0
20260503200718 28 14 6.4 14.5 0.00 0.00 0.00 51 1011.7
20260503200546 27 13 3.2 14.5 0.00 0.00 0.00 55 1011.1
20260503200248 27 13 3.2 14.5 0.00 0.00 0.00 55 1011.8
20260503200010 27 13 6.4 14.5 0.00 0.00 0.00 54 1011.2
20260503195745 27 15 6.4 14.5 0.00 0.00 0.00 56 1012.1
20260503195531 27 14 3.2 12.9 0.00 0.00 0.00 53 1011.3
20260503195210 27 15 1.6 12.9 0.00 0.00 0.00 55 1012.1
20260503195013 27 14 8.0 12.9 0.00 0.00 0.00 54 1011.5
20260503194719 27 13 4.8 12.9 0.00 0.00 0.00 60 1012.2
20260503194557 27 13 0.0 9.7 0.00 0.00 0.00 58 1011.5
20260503194236 27 14 1.6 9.7 0.00 0.00 0.00 57 1012.1
20260503194017 27 14 1.6 9.7 0.00 0.00 0.00 54 1011.4
20260503193723 27 15 0.0 9.7 0.00 0.00 0.00 59 1012.2
20260503193600 27 15 0.0 9.7 0.00 0.00 0.00 58 1011.4
20260503193224 27 15 3.2 9.7 0.00 0.00 0.00 64 1012.2
20260503193045 26 13 4.8 12.9 0.00 0.00 0.00 60 1011.6
20260503192725 27 13 1.6 14.5 0.00 0.00 0.00 56 1012.2
20260503192523 26 15 3.2 14.5 0.00 0.00 0.00 61 1011.6
20260503192218 26 13 9.7 14.5 0.00 0.00 0.00 60 1012.2
20260503192005 26 13 4.8 12.9 0.00 0.00 0.00 60 1011.7
20260503191719 26 13 6.4 14.5 0.00 0.00 0.00 61 1012.3
20260503191549 26 13 3.2 14.5 0.00 0.00 0.00 59 1011.6
20260503191220 26 14 6.4 14.5 0.00 0.00 0.00 62 1012.4
20260503191031 26 13 8.0 14.5 0.00 0.00 0.00 62 1011.7
20260503190729 26 13 8.0 16.1 0.00 0.00 0.00 60 1012.4
20260503190510 26 13 6.4 16.1 0.00 0.00 0.00 60 1011.8
20260503190210 26 13 8.0 16.1 0.00 0.00 0.00 61 1012.4
20260503190054 26 13 8.0 16.1 0.00 0.00 0.00 62 1011.8
20260503185711 26 13 6.4 11.3 0.00 0.00 0.00 61 1012.5
20260503185534 26 13 4.8 8.0 0.00 0.00 0.00 61 1011.9
20260503185240 26 270 0.0 6.4 0.00 0.00 0.00 61 1012.6
20260503185059 26 278 0.0 0.0 0.00 0.00 0.00 60 1011.9
20260503184720 26 265 0.0 0.0 0.00 0.00 0.00 64 1012.7
20260503184539 25 273 0.0 0.0 0.00 0.00 0.00 65 1012.0
20260503184222 26 15 0.0 3.2 0.00 0.00 0.00 62 1012.6
20260503184024 25 14 0.0 4.8 0.00 0.00 0.00 61 1012.1
20260503183730 25 15 0.0 6.4 0.00 0.00 0.00 63 1012.7
20260503183501 25 313 0.0 9.7 0.00 0.00 0.00 62 1012.1
20260503183211 25 14 1.6 9.7 0.00 0.00 0.00 65 1012.7
20260503183105 24 13 3.2 9.7 0.00 0.00 0.00 64 1012.2
20260503182741 25 13 1.6 11.3 0.00 0.00 0.00 65 1012.8
20260503182507 24 13 4.8 9.7 0.00 0.00 0.00 62 1012.2
20260503182221 25 13 0.0 0.0 0.00 0.00 0.00 64 1012.8
20260503182049 24 13 0.0 0.0 0.00 0.00 0.00 64 1012.3
20260503181746 24 13 0.0 6.4 0.00 0.00 0.00 65 1012.9
20260503181510 24 13 0.0 8.0 0.00 0.00 0.00 66 1012.4
20260503181226 24 13 0.0 8.0 0.00 0.00 0.00 65 1013.0
20260503181052 23 15 0.0 9.7 0.00 0.00 0.00 66 1012.3
20260503180710 23 14 4.8 9.7 0.00 0.00 0.00 68 1013.0
20260503180534 23 14 3.2 9.7 0.00 0.00 0.00 65 1012.4
20260503180236 23 13 4.8 11.3 0.00 0.00 0.00 65 1013.0
20260503175716 23 14 0.0 6.4 0.00 0.00 0.00 67 1013.1
20260503175538 23 225 0.0 12.9 0.00 0.00 0.00 66 1012.4
20260503175224 23 14 3.2 12.9 0.00 0.00 0.00 69 1013.0
20260503175101 23 299 1.6 12.9 0.00 0.00 0.00 68 1012.6
20260503174725 23 13 4.8 12.9 0.00 0.00 0.00 68 1013.2
20260503174543 22 13 0.0 0.0 0.00 0.00 0.00 69 1012.6
20260503174227 22 14 0.0 0.0 0.00 0.00 0.00 68 1013.1
20260503174024 22 13 0.0 0.0 0.00 0.00 0.00 68 1012.7
20260503173735 22 13 0.0 0.0 0.00 0.00 0.00 71 1013.2
20260503173546 22 12 0.0 0.0 0.00 0.00 0.00 69 1012.6
20260503173216 22 13 0.0 0.0 0.00 0.00 0.00 71 1013.2
20260503173028 22 13 0.0 0.0 0.00 0.00 0.00 70 1012.7
20260503172724 22 14 0.0 6.4 0.00 0.00 0.00 70 1013.3
20260503172510 21 13 0.0 8.0 0.00 0.00 0.00 70 1012.9
20260503172247 22 13 0.0 8.0 0.00 0.00 0.00 73 1013.4
20260503172036 21 13 0.0 8.0 0.00 0.00 0.00 75 1012.8
20260503171735 21 13 1.6 8.0 0.00 0.00 0.00 73 1013.3
20260503171521 21 13 0.0 0.0 0.00 0.00 0.00 73 1012.8
20260503171215 21 13 0.0 0.0 0.00 0.00 0.00 73 1013.4
20260503171037 21 13 0.0 0.0 0.00 0.00 0.00 74 1012.9
20260503170716 21 13 0.0 0.0 0.00 0.00 0.00 75 1013.4
20260503170518 20 14 0.0 0.0 0.00 0.00 0.00 76 1012.9
20260503170224 21 13 0.0 0.0 0.00 0.00 0.00 75 1013.4
20260503150736 15 12 3.2 4.8 0.00 0.00 0.00 87 1013.5
20260503150602 15 11 1.6 4.8 0.00 0.00 0.00 88 1013.1
20260503150217 15 12 1.6 4.8 0.00 0.00 0.00 88 1013.5
20260503140228 13 78 0.0 1.6 0.00 0.00 0.00 91 1013.2
20260503131213 13 137 4.8 12.9 0.00 0.00 0.00 87 1013.2
20260503131054 13 138 4.8 12.9 0.00 0.00 0.00 87 1012.8
20260503130734 13 140 4.8 9.7 0.00 0.00 0.00 86 1013.2
20260503130518 13 142 3.2 11.3 0.00 0.00 0.00 85 1012.8
20260503130218 14 132 3.2 11.3 0.00 0.00 0.00 84 1013.1
20260503120220 12 63 1.6 6.4 0.00 0.00 0.00 95 1013.2
20260503110749 12 44 1.6 4.8 0.00 0.00 0.00 93 1013.8
20260503110539 12 44 0.0 4.8 0.00 0.00 0.00 93 1013.4
20260503110209 12 44 1.6 4.8 0.00 0.00 0.00 93 1013.9
20260503100214 13 23 3.2 4.8 0.00 0.00 0.00 91 1013.8
20260503090508 13 22 1.6 3.2 0.00 0.00 0.00 91 1013.3
20260503090224 13 22 1.6 4.8 0.00 0.00 0.00 90 1013.7
20260503081507 14 60 3.2 6.4 0.00 0.00 0.00 89 1013.5
20260503081218 14 68 3.2 6.4 0.00 0.00 0.00 89 1014.1
20260503081053 14 68 1.6 6.4 0.00 0.00 0.00 89 1013.6
20260503080720 14 73 4.8 6.4 0.00 0.00 0.00 88 1014.0
20260503080532 14 73 3.2 6.4 0.00 0.00 0.00 88 1013.7
20260503080228 15 64 3.2 4.8 0.00 0.00 0.00 88 1014.0
20260503072710 16 175 3.2 4.8 0.00 0.00 0.00 84 1013.9
20260503072507 16 175 3.2 4.8 0.00 0.00 0.00 84 1013.4
20260503072218 16 40 0.0 4.8 0.00 0.00 0.00 83 1013.7
20260503072051 16 40 0.0 6.4 0.00 0.00 0.00 83 1013.4
20260503071719 16 40 3.2 6.4 0.00 0.00 0.00 83 1013.7
20260503071536 16 39 3.2 6.4 0.00 0.00 0.00 83 1013.4
20260503071228 16 59 3.2 9.7 0.00 0.00 0.00 82 1013.8
20260503071014 16 148 0.0 9.7 0.00 0.00 0.00 82 1013.5
20260503070726 17 148 1.6 9.7 0.00 0.00 0.00 81 1013.8
20260503070554 16 165 3.2 9.7 0.00 0.00 0.00 81 1013.5
20260503070228 17 147 3.2 9.7 0.00 0.00 0.00 81 1013.8
20260503060216 16 360 3.2 9.7 0.00 0.00 0.00 85 1014.2
20260503055000 15 15 3.2 6.4 0.00 0.00 0.00 85 1014.1
20260503054727 16 15 4.8 6.4 0.00 0.00 0.00 85 1014.4
20260503054544 15 54 3.2 6.4 0.00 0.00 0.00 85 1014.1
20260503054229 16 63 4.8 6.4 0.00 0.00 0.00 84 1014.5
20260503054025 16 49 4.8 6.4 0.00 0.00 0.00 84 1014.2
20260503053738 16 53 4.8 6.4 0.00 0.00 0.00 83 1014.6
20260503053549 16 66 1.6 6.4 0.00 0.00 0.00 83 1014.3
20260503053246 16 125 3.2 9.7 0.00 0.00 0.00 82 1014.5
20260503053011 16 134 1.6 9.7 0.00 0.00 0.00 82 1014.3
20260503052726 16 323 3.2 9.7 0.00 0.00 0.00 82 1014.4
20260503052553 16 294 3.2 9.7 0.00 0.00 0.00 83 1014.0
20260503052227 16 293 3.2 9.7 0.00 0.00 0.00 84 1014.3
20260503052035 16 54 1.6 8.0 0.00 0.00 0.00 84 1014.1
20260503051735 16 350 3.2 8.0 0.00 0.00 0.00 85 1014.3
20260503051523 16 5 3.2 8.0 0.00 0.00 0.00 85 1014.0
20260503051238 16 327 3.2 3.2 0.00 0.00 0.00 84 1014.3
20260503051039 16 327 1.6 3.2 0.00 0.00 0.00 84 1014.1
20260503050719 16 325 1.6 3.2 0.00 0.00 0.00 84 1014.5
20260503050522 16 325 1.6 3.2 0.00 0.00 0.00 84 1014.3
20260503050228 16 5 0.0 3.2 0.00 0.00 0.00 84 1014.5
20260503050002 16 5 0.0 3.2 0.00 0.00 0.00 84 1014.3
20260503045708 16 5 1.6 3.2 0.00 0.00 0.00 83 1014.6
20260503045546 16 5 1.6 3.2 0.00 0.00 0.00 83 1014.3
20260503045238 16 5 1.6 3.2 0.00 0.00 0.00 83 1014.6
20260503045009 16 338 0.0 3.2 0.00 0.00 0.00 83 1014.3
20260503044718 16 338 1.6 3.2 0.00 0.00 0.00 82 1014.5
20260503044548 16 295 1.6 3.2 0.00 0.00 0.00 83 1014.3
20260503044221 16 261 1.6 3.2 0.00 0.00 0.00 82 1014.6
20260503044013 16 255 1.6 3.2 0.00 0.00 0.00 82 1014.4
20260503043722 16 246 1.6 3.2 0.00 0.00 0.00 82 1014.6
20260503043553 16 244 1.6 3.2 0.00 0.00 0.00 82 1014.4
20260503043223 17 244 1.6 3.2 0.00 0.00 0.00 81 1014.6
20260503043033 16 244 1.6 3.2 0.00 0.00 0.00 81 1014.3
20260503042732 17 190 1.6 3.2 0.00 0.00 0.00 80 1014.6
20260503042515 17 177 0.0 3.2 0.00 0.00 0.00 80 1014.3
20260503042234 17 177 1.6 3.2 0.00 0.00 0.00 79 1014.6
20260503042143 17 177 1.6 3.2 0.00 0.00 0.00 79 1014.3
20260503041732 17 177 0.0 3.2 0.00 0.00 0.00 78 1014.4
20260503041509 17 177 0.0 3.2 0.00 0.00 0.00 78 1014.2
20260503041221 17 177 0.0 3.2 0.00 0.00 0.00 78 1014.4
20260503040537 17 176 0.0 3.2 0.00 0.00 0.00 76 1014.1
20260503040244 18 177 0.0 4.8 0.00 0.00 0.00 76 1014.4
20260503040100 18 177 0.0 6.4 0.00 0.00 0.00 76 1014.2
20260503035745 18 177 1.6 6.4 0.00 0.00 0.00 76 1014.4
20260503035525 18 177 1.6 6.4 0.00 0.00 0.00 75 1014.1
20260503035232 18 175 1.6 8.0 0.00 0.00 0.00 75 1014.3
20260503035003 18 159 1.6 8.0 0.00 0.00 0.00 74 1014.0
20260503034713 18 190 1.6 6.4 0.00 0.00 0.00 74 1014.2
20260503034556 18 176 3.2 6.4 0.00 0.00 0.00 74 1014.0
20260503034215 18 158 3.2 9.7 0.00 0.00 0.00 74 1014.1
20260503034028 18 180 3.2 11.3 0.00 0.00 0.00 73 1013.8
20260503033723 19 190 4.8 11.3 0.00 0.00 0.00 73 1014.1
20260503033509 18 128 6.4 11.3 0.00 0.00 0.00 73 1013.7
20260503033225 19 159 6.4 12.9 0.00 0.00 0.00 73 1014.0
20260503033058 19 169 3.2 12.9 0.00 0.00 0.00 73 1013.6
20260503032726 19 195 6.4 14.5 0.00 0.00 0.00 72 1013.9
20260503032538 19 171 6.4 14.5 0.00 0.00 0.00 72 1013.6
20260503032235 20 188 4.8 14.5 0.00 0.00 0.00 72 1013.8
20260503032016 19 162 6.4 14.5 0.00 0.00 0.00 72 1013.4
20260503031716 20 178 4.8 14.5 0.00 0.00 0.00 72 1013.7
20260503031600 20 163 4.8 14.5 0.00 0.00 0.00 71 1013.4
20260503031218 20 137 8.0 14.5 0.00 0.00 0.00 71 1013.6
20260503031040 20 175 3.2 14.5 0.00 0.00 0.00 71 1013.2
20260503030719 20 190 6.4 14.5 0.00 0.00 0.00 70 1013.5
20260503030523 20 162 6.4 16.1 0.00 0.00 0.00 70 1013.3
20260503030227 20 164 8.0 16.1 0.00 0.00 0.00 70 1013.5
20260503030005 20 167 9.7 16.1 0.00 0.00 0.00 69 1013.2
20260503025713 21 159 8.0 25.7 0.00 0.00 0.00 69 1013.4
20260503025546 21 187 6.4 25.7 0.00 0.00 0.00 69 1013.1
20260503025214 21 197 6.4 25.7 0.00 0.00 0.00 69 1013.3
20260503025029 21 154 8.0 25.7 0.00 0.00 0.00 68 1013.0
20260503024722 22 159 6.4 12.9 0.00 0.00 0.00 67 1013.1
20260503024509 21 174 4.8 8.0 0.00 0.00 0.00 68 1012.8
20260503024224 22 179 3.2 6.4 0.00 0.00 0.00 67 1013.0
20260503024053 22 177 3.2 6.4 0.00 0.00 0.00 66 1012.7
20260503023748 22 13 4.8 8.0 0.00 0.00 0.00 66 1012.9
20260503023512 22 12 1.6 8.0 0.00 0.00 0.00 67 1012.5
20260503023249 22 12 3.2 8.0 0.00 0.00 0.00 67 1012.8
20260503023036 22 12 1.6 8.0 0.00 0.00 0.00 66 1012.4
20260503022736 22 12 4.8 8.0 0.00 0.00 0.00 65 1012.6
20260503022517 22 12 1.6 4.8 0.00 0.00 0.00 65 1012.2
20260503022217 23 12 3.2 4.8 0.00 0.00 0.00 64 1012.6
20260503022100 22 11 1.6 4.8 0.00 0.00 0.00 65 1012.3
20260503021719 23 12 3.2 4.8 0.00 0.00 0.00 65 1012.6
20260503021541 22 12 0.0 4.8 0.00 0.00 0.00 65 1012.3
20260503021220 23 12 1.6 4.8 0.00 0.00 0.00 65 1012.6
20260503021026 23 12 1.6 4.8 0.00 0.00 0.00 63 1012.4
20260503020728 23 12 0.0 0.0 0.00 0.00 0.00 63 1012.7
20260503020504 23 12 0.0 0.0 0.00 0.00 0.00 63 1012.4
20260503020214 23 11 0.0 0.0 0.00 0.00 0.00 64 1012.6
20260503020048 23 11 0.0 0.0 0.00 0.00 0.00 62 1012.3
20260503015715 23 11 0.0 0.0 0.00 0.00 0.00 63 1012.6
20260503015529 23 11 0.0 0.0 0.00 0.00 0.00 62 1012.3
20260503015224 23 11 0.0 3.2 0.00 0.00 0.00 63 1012.5
20260503015011 23 11 0.0 4.8 0.00 0.00 0.00 63 1012.2
20260503014725 23 11 0.0 4.8 0.00 0.00 0.00 63 1012.4
20260503014554 23 11 0.0 4.8 0.00 0.00 0.00 66 1012.2
20260503014227 23 12 1.6 4.8 0.00 0.00 0.00 66 1012.6
20260503014035 22 11 1.6 4.8 0.00 0.00 0.00 64 1012.3
20260503013735 23 13 1.6 4.8 0.00 0.00 0.00 65 1012.6
20260503013558 22 13 1.6 6.4 0.00 0.00 0.00 65 1012.3
20260503013216 23 12 1.6 6.4 0.00 0.00 0.00 64 1012.6
20260503013049 23 11 1.6 6.4 0.00 0.00 0.00 64 1012.3
20260503012717 23 12 4.8 6.4 0.00 0.00 0.00 64 1012.6
20260503012521 23 12 1.6 6.4 0.00 0.00 0.00 66 1012.4
20260503012242 23 11 1.6 6.4 0.00 0.00 0.00 64 1012.7
20260503012043 23 11 0.0 6.4 0.00 0.00 0.00 67 1012.4
20260503011722 23 12 1.6 6.4 0.00 0.00 0.00 63 1012.7
20260503011532 23 13 1.6 6.4 0.00 0.00 0.00 64 1012.5
20260503011230 23 12 0.0 3.2 0.00 0.00 0.00 62 1012.7
20260503011007 23 12 0.0 4.8 0.00 0.00 0.00 64 1012.4
20260503010716 23 13 0.0 4.8 0.00 0.00 0.00 64 1012.7
20260503010550 22 13 0.0 4.8 0.00 0.00 0.00 63 1012.4
20260503010233 23 13 1.6 6.4 0.00 0.00 0.00 64 1012.7
20260503010012 22 13 1.6 6.4 0.00 0.00 0.00 64 1012.4
20260503005721 23 13 4.8 6.4 0.00 0.00 0.00 63 1012.7
20260503005554 22 13 3.2 6.4 0.00 0.00 0.00 63 1012.4
20260503005222 23 13 3.2 8.0 0.00 0.00 0.00 63 1012.6
20260503005037 23 13 0.0 8.0 0.00 0.00 0.00 65 1012.4
20260503004730 23 13 0.0 8.0 0.00 0.00 0.00 63 1012.7
20260503004517 23 13 4.8 8.0 0.00 0.00 0.00 64 1012.3
20260503004216 23 13 0.0 9.7 0.00 0.00 0.00 66 1012.7
20260503004100 22 13 0.0 9.7 0.00 0.00 0.00 66 1012.4
20260503003718 23 11 3.2 9.7 0.00 0.00 0.00 64 1012.7
20260503003541 22 12 4.8 9.7 0.00 0.00 0.00 63 1012.5
20260503003242 23 12 0.0 6.4 0.00 0.00 0.00 63 1012.7
20260503003002 22 13 0.0 6.4 0.00 0.00 0.00 65 1012.4
20260503002722 22 15 0.0 8.0 0.00 0.00 0.00 65 1012.7
20260503002545 22 15 1.6 8.0 0.00 0.00 0.00 67 1012.4
20260503002230 22 13 3.2 8.0 0.00 0.00 0.00 65 1012.6
20260503002007 22 13 4.8 8.0 0.00 0.00 0.00 65 1012.4
20260503001711 22 13 0.0 9.7 0.00 0.00 0.00 67 1012.7
20260503001550 22 13 0.0 9.7 0.00 0.00 0.00 66 1012.4
20260503001213 22 13 3.2 9.7 0.00 0.00 0.00 66 1012.8
20260503001031 22 13 3.2 9.7 0.00 0.00 0.00 66 1012.4
20260503000741 22 13 4.8 11.3 0.00 0.00 0.00 67 1012.8
20260503000553 22 13 4.8 9.7 0.00 0.00 0.00 65 1012.6
20260503000222 22 220 3.2 9.7 0.00 0.00 0.00 67 1012.9
20260503000035 22 13 3.2 9.7 0.00 0.00 0.00 67 1012.6
20260502235731 22 13 6.4 12.9 0.00 0.00 0.00 67 1012.9
20260502235517 22 13 6.4 12.9 0.00 0.00 0.00 68 1012.7
20260502235212 22 12 6.4 12.9 0.00 0.00 0.00 67 1013.0
20260502235100 21 13 4.8 12.9 0.00 0.00 0.00 67 1012.9
20260502234713 22 14 6.4 12.9 0.00 0.00 0.00 67 1013.1
20260502234541 21 247 4.8 12.9 0.00 0.00 0.00 68 1012.9
20260502234215 22 13 6.4 14.5 0.00 0.00 0.00 66 1013.1
20260502234023 21 12 4.8 14.5 0.00 0.00 0.00 67 1012.9
20260502233723 22 13 3.2 14.5 0.00 0.00 0.00 68 1013.2
20260502233504 21 13 8.0 14.5 0.00 0.00 0.00 68 1013.0
20260502233224 22 13 6.4 12.9 0.00 0.00 0.00 67 1013.2
20260502233047 21 13 4.8 9.7 0.00 0.00 0.00 69 1012.9
20260502232710 22 13 1.6 12.9 0.00 0.00 0.00 69 1013.3
20260502232529 21 13 1.6 12.9 0.00 0.00 0.00 67 1013.0
20260502232211 21 14 3.2 12.9 0.00 0.00 0.00 70 1013.3
20260502232010 21 269 4.8 12.9 0.00 0.00 0.00 69 1013.0
20260502231720 21 307 3.2 12.9 0.00 0.00 0.00 69 1013.3
20260502231556 21 15 4.8 12.9 0.00 0.00 0.00 68 1013.1
20260502231221 21 13 4.8 12.9 0.00 0.00 0.00 71 1013.4
20260502231035 21 230 6.4 12.9 0.00 0.00 0.00 70 1013.2
20260502230729 21 10 1.6 11.3 0.00 0.00 0.00 68 1013.4
20260502230516 20 159 4.8 11.3 0.00 0.00 0.00 69 1013.3
20260502230246 21 228 6.4 14.5 0.00 0.00 0.00 69 1013.5
20260502230038 20 271 3.2 14.5 0.00 0.00 0.00 70 1013.4
20260502225710 21 14 6.4 14.5 0.00 0.00 0.00 72 1013.6
20260502225520 20 13 8.0 14.5 0.00 0.00 0.00 71 1013.3
20260502225214 21 224 9.7 16.1 0.00 0.00 0.00 69 1013.7
20260502225042 21 232 8.0 16.1 0.00 0.00 0.00 67 1013.4
20260502224742 21 281 1.6 9.7 0.00 0.00 0.00 68 1013.8
20260502224502 21 15 0.0 9.7 0.00 0.00 0.00 69 1013.5
20260502224223 21 286 3.2 9.7 0.00 0.00 0.00 70 1013.9
20260502224046 21 269 4.8 9.7 0.00 0.00 0.00 69 1013.6